EGPF

Glasgow International Airport

Airport
ICAO code
EGPF
IATA Code
GLA
Summary
ICAO Region
EUR
ICAO Territory
Location

Paisley, Scotland

Serving
Glasgow
Elevation
26 ft
Coordinates
55° 52' 5" N , 4° 26' 9" W
KCC
Metar
EGPF 251020Z AUTO 18004KT 120V250 9999 BKN027 BKN032 15/09 Q1018

Description

A domestic and international airport serving the City of Glasgow and the surrounding region.

Climatology

Temperate Marine climate/Oceanic climate (Köppen climate classification Cfb). Moderately cool summer and comparatively warm winter with a temperature range of only 14°C. Prevailing south-westerly winds from the Atlantic Ocean.

Runways

Designator Length Width Surface Rops
9/27 1104 46 ASP Yes/Yes
5/23 2658 46 ASP Yes/Yes

SKYbrary Partners:

Safety knowledge contributed by: